SILO ALERT LOG


Silo ID Alert Type Alert Message Silo Type Points Depth (mm) Strength Temperature (°C) Humidity (%) Height (mm) Volume (㎥) Weight (t) Flag Time
DJHNR14 Temperature 온도센서 측정값이 0도 미만 호퍼 29 2765 4195 -2.8 72.4 7614 110.297 69.73 11 2024-01-10 20:39:30.000
DJHNR13 Temperature 온도센서 측정값이 0도 미만 호퍼 3 32416 4866 -1.9 69.8 -22036 0 0 0 2024-01-10 20:39:30.000
DJSAD17 Humidity 습도센서 측정값이 80% 초과 442 3110 4840 3.8 80.3 4469 445.096 281.39 0 2024-01-10 20:39:30.000
DJSAD18 Humidity 습도센서 측정값이 80% 초과 120 1448 5800 4.5 80.8 6131 610.61 386.028 11 2024-01-10 20:39:30.000
DJHNR12 Humidity 습도센서 측정값이 80% 초과 호퍼 0 10500 0 -3.3 81.7 -120 0 0 31 2024-01-10 20:39:24.000
DJHNR12 Temperature 온도센서 측정값이 0도 미만 호퍼 0 10500 0 -3.3 81.7 -120 0 0 31 2024-01-10 20:39:24.000
DJSSD12 Temperature 온도센서 상태 이상 호퍼 0 11350 0 -999 -999 -120 0 0 31 2024-01-10 20:39:24.000
DJHNR03 Temperature 온도센서 상태 이상 호퍼 0 15500 0 -999 -999 -119 0 0 31 2024-01-10 20:39:23.000
DJSAD03 Humidity 습도센서 측정값이 80% 초과 448 1675 6092 2.7 84.5 7104 294.104 185.933 0 2024-01-10 19:39:40.000
DJSAD01 Humidity 습도센서 측정값이 80% 초과 477 1458 7342 1.4 88.2 7321 303.085 191.61 0 2024-01-10 19:39:40.000
DJSAD07 Humidity 습도센서 측정값이 80% 초과 259 1356 1736 5 80.5 6223 885.522 550 11 2024-01-10 19:39:39.000
DJSAD02 Humidity 습도센서 측정값이 80% 초과 379 1134 4284 2.4 87.3 7645 316.498 200.09 11 2024-01-10 19:39:39.000
DJSAD08 Humidity 습도센서 측정값이 80% 초과 0 7700 3830 11 83.4 -120 -17.075 0 12 2024-01-10 19:39:37.000
DJSAD11 Humidity 습도센서 측정값이 80% 초과 335 1640 3226 1.9 80.1 5939 845.192 534.331 11 2024-01-10 19:39:35.000
DJHNR11 Temperature 온도센서 측정값이 0도 미만 호퍼 220 3245 1067 -2.7 74.1 7134 99.936 63.179 11 2024-01-10 19:39:34.000
DJHNR01 Humidity 습도센서 측정값이 80% 초과 호퍼 471 4307 5009 4.4 99.9 11072 472.84 298.929 13 2024-01-10 19:39:34.000
DJDJD04 Humidity 습도센서 측정값이 80% 초과 280 4197 4430 4.3 81 3482 421.938 266.749 11 2024-01-10 19:39:33.000
DJSSD05 Temperature 온도센서 측정값이 0도 미만 836 2549 4867 -45.4 43.8 5530 769.772 486.65 0 2024-01-10 19:39:33.000
DJSAD12 Humidity 습도센서 측정값이 80% 초과 0 7700 0 3.1 86.3 -120 -17.075 0 31 2024-01-10 19:39:33.000
DJSSD01 Humidity 습도센서 측정값이 80% 초과 788 2583 4656 5.5 82.7 5496 765.007 483.638 0 2024-01-10 19:39:33.000

[첫 페이지] [10013] [10014] [10015] [10016] 10017 [10018] [10019] [10020] [10021] [마지막 페이지]